Simultaneous Nadir Overpasses (SNOs) Predictions

Prediction of SNOs between GOES-14 and AQUA Satellite Orbit:

Table of predicted SNOs for the next 14.0 days since TLE Epoch: 4/19/2019
Index Date Time (GOES-14) GOES-14 Lat,Lon AQUA Lat,Lon Distance(km) Time Diff (sec)
1 04/21/2019 08:33:24 0.12,-104.39 0.19,-104.70 35.25 80
2 04/23/2019 08:23:51 0.12,-104.39 -0.46,-101.74 302.02 80
3 04/23/2019 20:45:14 -0.11,-104.39 -0.67,-106.92 288.13 80
4 04/25/2019 20:30:21 -0.12,-104.39 -0.02,-103.96 48.97 80
5 04/27/2019 20:18:08 -0.12,-104.40 0.62,-101.00 386.35 80
6 04/28/2019 08:39:23 0.11,-104.39 0.50,-106.15 200.88 80
7 04/30/2019 08:29:50 0.12,-104.40 -0.15,-103.20 136.97 80
8 04/30/2019 20:51:12 -0.11,-104.42 -0.97,-108.38 450.71 80
9 05/02/2019 08:17:36 0.12,-104.41 -0.74,-100.23 475.02 80
10 05/02/2019 20:39:00 -0.11,-104.43 -0.32,-105.42 113.02 80




NCC Satellite Simultaneous Nadir Overpasses (SNOs) Prediction Service
